Location: Cahas Mountain Overlook
(37.0833°N, 80.1000°W)
Time: 21:26:01
(UTC-05:00)

A-11 Canister half - Visible Passes

Search period start: 22 January 2022 00:00
Search period end: 01 February 2022 00:00
Orbit: 1524 x 1684 km, 47.3° (Epoch: 22 January)

Date Brightness Start Highest point End Pass type
(mag) Time Alt. Az. Time Alt. Az. Time Alt. Az.
22 Jan 9.2 18:24:41 10° WNW 18:34:29 83° SW 18:44:34 10° SE visible
22 Jan 10.7 20:30:58 10° WNW 20:38:40 26° SW 20:46:30 10° S visible
23 Jan 9.2 18:03:00 10° WNW 18:12:47 86° SW 18:22:52 10° SE visible
23 Jan 10.7 20:09:08 10° WNW 20:17:02 28° SW 20:25:05 10° S visible
24 Jan 10.6 19:47:19 10° WNW 19:55:24 30° SW 20:03:39 10° S visible
25 Jan 10.6 19:25:31 10° WNW 19:33:45 32° SW 19:42:12 10° S visible
26 Jan 10.6 19:03:43 10° WNW 19:12:07 34° SW 19:20:43 10° S visible
27 Jan 10.6 18:41:57 10° WNW 18:50:29 35° SW 18:59:14 10° SSE visible
28 Jan 10.6 18:20:12 10° WNW 18:28:50 38° SW 18:37:43 10° SSE visible
29 Jan 10.6 17:58:26 10° WNW 18:07:11 40° SW 18:16:12 10° SSE visible
31 Jan 11.7 06:53:12 10° SSE 06:57:39 14° ESE 07:02:06 10° E visible
